DW8495 Weather Reports


time (UTC)temp
C
wind
direction
speed
KPH
gust
KPH
rain 1hr
cm
rain 24hr
cm
rain mn
cm
humidity
%
barometer
mb
20260507175031 30 105 11.3 12.9 0.00 0.00 0.00 73 1018.0
20260507174527 30 104 3.2 3.2 0.00 0.00 0.00 74 1018.2
20260507174025 30 138 9.7 11.3 0.00 0.00 0.00 72 1018.1
20260507173522 30 170 4.8 4.8 0.00 0.00 0.00 74 1018.3
20260507173020 30 160 9.7 11.3 0.00 0.00 0.00 71 1018.3
20260507172515 30 137 6.4 9.7 0.00 0.00 0.00 71 1018.3
20260507172012 30 127 8.0 9.7 0.00 0.00 0.00 71 1018.4
20260507171507 30 124 4.8 8.0 0.00 0.00 0.00 72 1018.3
20260507171005 30 179 6.4 9.7 0.00 0.00 0.00 73 1018.5
20260507170502 30 145 8.0 9.7 0.00 0.00 0.00 73 1018.4
20260507165958 30 187 4.8 4.8 0.00 0.00 0.00 73 1018.5
20260507165454 30 181 9.7 11.3 0.00 0.00 0.00 72 1018.6
20260507164950 30 180 4.8 8.0 0.00 0.00 0.00 73 1018.6
20260507164447 30 164 9.7 11.3 0.00 0.00 0.00 73 1018.7
20260507163944 29 121 4.8 4.8 0.00 0.00 0.00 75 1018.7
20260507163441 30 136 4.8 8.0 0.00 0.00 0.00 75 1018.8
20260507162938 30 144 8.0 12.9 0.00 0.00 0.00 74 1018.8
20260507162433 30 167 4.8 4.8 0.00 0.00 0.00 74 1018.6
20260507161931 28 86 8.0 9.7 0.00 0.00 0.00 77 1018.8
20260507161427 28 142 9.7 11.3 0.00 0.00 0.00 76 1018.9
20260507160924 29 77 8.0 8.0 0.00 0.00 0.00 75 1018.9
20260507160420 29 126 4.8 4.8 0.00 0.00 0.00 74 1019.2
20260507155916 29 116 8.0 11.3 0.00 0.00 0.00 75 1018.9
20260507155412 28 78 4.8 4.8 0.00 0.00 0.00 76 1018.9
20260507154909 28 104 1.6 3.2 0.00 0.00 0.00 76 1018.9
20260507154406 29 96 8.0 12.9 0.00 0.00 0.00 76 1018.9
20260507153903 29 106 8.0 9.7 0.00 0.00 0.00 75 1018.8
20260507153400 28 122 9.7 11.3 0.00 0.00 0.00 76 1019.0
20260507152856 28 140 6.4 8.0 0.00 0.00 0.00 76 1018.9
20260507152352 28 140 3.2 4.8 0.00 0.00 0.00 78 1018.7
20260507151848 28 104 3.2 4.8 0.00 0.00 0.00 78 1018.9
20260507151344 29 110 8.0 11.3 0.00 0.00 0.00 76 1019.0
20260507150842 30 140 11.3 11.3 0.00 0.00 0.00 74 1019.0
20260507150338 29 89 3.2 3.2 0.00 0.00 0.00 76 1018.9
20260507145835 29 139 6.4 9.7 0.00 0.00 0.00 76 1019.2
20260507145331 28 162 4.8 4.8 0.00 0.00 0.00 77 1018.9
20260507144828 28 84 0.0 1.6 0.00 0.00 0.00 77 1019.2
20260507144320 28 136 4.8 4.8 0.00 0.00 0.00 76 1019.0
20260507143816 28 78 4.8 4.8 0.00 0.00 0.00 75 1018.9
20260507143314 30 109 6.4 9.7 0.00 0.00 0.00 74 1018.7
20260507142809 29 94 6.4 11.3 0.00 0.00 0.00 74 1018.8
20260507142307 28 142 4.8 4.8 0.00 0.00 0.00 75 1018.8
20260507141803 28 107 4.8 4.8 0.00 0.00 0.00 75 1018.8
20260507141300 28 147 8.0 9.7 0.00 0.00 0.00 75 1019.0
20260507140756 29 96 8.0 9.7 0.00 0.00 0.00 75 1018.7
20260507140253 29 141 9.7 12.9 0.00 0.00 0.00 75 1018.9
20260507135750 28 87 4.8 4.8 0.00 0.00 0.00 76 1018.7
20260507135248 28 111 8.0 9.7 0.00 0.00 0.00 75 1019.0
20260507134744 28 177 9.7 11.3 0.00 0.00 0.00 75 1018.7
20260507134240 29 138 6.4 9.7 0.00 0.00 0.00 75 1018.7
20260507133736 28 153 8.0 9.7 0.00 0.00 0.00 75 1018.7
20260507133233 28 109 6.4 9.7 0.00 0.00 0.00 75 1018.6
20260507132731 28 182 6.4 8.0 0.00 0.00 0.00 74 1018.6
20260507132227 28 143 4.8 8.0 0.00 0.00 0.00 76 1018.5
20260507131724 28 166 4.8 8.0 0.00 0.00 0.00 76 1018.6
20260507131221 28 154 4.8 8.0 0.00 0.00 0.00 77 1018.7
20260507130718 28 159 6.4 9.7 0.00 0.00 0.00 77 1018.4
20260507130216 28 113 3.2 4.8 0.00 0.00 0.00 76 1018.3
20260507125714 28 99 3.2 3.2 0.00 0.00 0.00 77 1018.4
20260507125212 28 127 4.8 8.0 0.00 0.00 0.00 77 1018.2
20260507124708 28 126 6.4 8.0 0.00 0.00 0.00 79 1018.3
20260507124205 28 118 1.6 1.6 0.00 0.00 0.00 79 1018.3
20260507123703 28 175 4.8 8.0 0.00 0.00 0.00 79 1018.3
20260507123200 28 120 4.8 8.0 0.00 0.00 0.00 80 1018.2
20260507122655 28 129 8.0 9.7 0.00 0.00 0.00 79 1018.4
20260507122151 27 116 6.4 8.0 0.00 0.00 0.00 80 1018.1
20260507121648 27 108 4.8 8.0 0.00 0.00 0.00 80 1018.2
20260507121143 27 126 6.4 9.7 0.00 0.00 0.00 81 1018.2
20260507120640 27 135 3.2 3.2 0.00 0.00 0.00 81 1018.0
20260507120137 27 131 4.8 4.8 0.00 0.00 0.00 80 1018.1
20260507115633 27 114 3.2 4.8 0.00 0.00 0.00 80 1018.1
20260507115128 27 126 8.0 9.7 0.00 0.00 0.00 81 1018.1
20260507114625 27 114 1.6 1.6 0.00 0.00 0.00 81 1018.2
20260507114122 27 148 4.8 8.0 0.00 0.00 0.00 81 1018.1
20260507113619 27 127 4.8 8.0 0.00 0.00 0.00 81 1018.0
20260507113116 26 134 3.2 3.2 0.00 0.00 0.00 82 1017.8
20260507112614 26 129 6.4 9.7 0.00 0.00 0.00 82 1017.7
20260507112111 26 171 3.2 4.8 0.00 0.00 0.00 82 1017.6
20260507111608 26 161 8.0 11.3 0.00 0.00 0.00 82 1017.7
20260507111104 26 110 4.8 4.8 0.00 0.00 0.00 82 1017.5
20260507110601 26 143 4.8 8.0 0.00 0.00 0.00 82 1017.5
20260507110057 26 107 6.4 8.0 0.00 0.00 0.00 82 1017.4
20260507105554 26 113 3.2 3.2 0.00 0.00 0.00 82 1017.3
20260507105050 26 129 4.8 8.0 0.00 0.00 0.00 82 1017.2
20260507104548 26 123 9.7 12.9 0.00 0.00 0.00 81 1016.9
20260507104044 26 126 4.8 8.0 0.00 0.00 0.00 82 1017.2
20260507103540 26 128 8.0 11.3 0.00 0.00 0.00 81 1017.0
20260507103037 26 109 6.4 8.0 0.00 0.00 0.00 81 1017.1
20260507102534 26 150 6.4 8.0 0.00 0.00 0.00 81 1017.1
20260507102031 26 126 9.7 11.3 0.00 0.00 0.00 82 1017.1
20260507101525 26 125 4.8 8.0 0.00 0.00 0.00 81 1017.1
20260507101022 26 169 8.0 9.7 0.00 0.00 0.00 81 1016.7
20260507100519 26 116 6.4 11.3 0.00 0.00 0.00 81 1017.1
20260507100017 26 108 4.8 4.8 0.00 0.00 0.00 81 1016.9
20260507095515 26 76 8.0 12.9 0.00 0.00 0.00 81 1016.9
20260507095011 26 122 3.2 4.8 0.00 0.00 0.00 81 1016.9
20260507094508 26 111 3.2 3.2 0.00 0.00 0.00 81 1016.8
20260507094005 26 127 11.3 12.9 0.00 0.00 0.00 81 1016.9
20260507093502 26 132 4.8 4.8 0.00 0.00 0.00 80 1016.7
20260507093001 26 121 6.4 9.7 0.00 0.00 0.00 80 1016.7
20260507092456 26 112 4.8 8.0 0.00 0.00 0.00 80 1016.9
20260507091953 26 151 6.4 9.7 0.00 0.00 0.00 80 1016.7
20260507091450 26 116 6.4 8.0 0.00 0.00 0.00 80 1016.5
20260507090946 26 110 8.0 11.3 0.00 0.00 0.00 80 1016.4
20260507090442 26 114 4.8 4.8 0.00 0.00 0.00 80 1016.6
20260507085939 26 165 11.3 12.9 0.00 0.00 0.00 80 1016.5
20260507085436 26 117 8.0 11.3 0.00 0.00 0.00 80 1016.9
20260507084933 26 104 8.0 11.3 0.00 0.00 0.00 79 1016.5
20260507084430 26 106 8.0 11.3 0.00 0.00 0.00 79 1016.5
20260507083927 26 115 8.0 12.9 0.00 0.00 0.00 79 1016.4
20260507083423 26 163 4.8 4.8 0.00 0.00 0.00 79 1016.6
20260507082919 26 95 11.3 14.5 0.00 0.00 0.00 79 1016.6
20260507082415 26 123 8.0 11.3 0.00 0.00 0.00 79 1016.5
20260507081913 26 99 6.4 9.7 0.00 0.00 0.00 79 1016.7
20260507081409 26 114 8.0 11.3 0.00 0.00 0.00 79 1016.5
20260507080906 26 113 8.0 11.3 0.00 0.00 0.00 78 1016.6
20260507080402 26 164 14.5 17.7 0.00 0.00 0.00 79 1016.7
20260507075857 26 120 9.7 12.9 0.00 0.00 0.00 78 1016.8
20260507075353 26 127 11.3 12.9 0.00 0.00 0.00 78 1016.7
20260507074850 26 113 4.8 8.0 0.00 0.00 0.00 79 1016.9
20260507074347 26 114 9.7 11.3 0.00 0.00 0.00 78 1016.8
20260507073844 26 107 8.0 11.3 0.00 0.00 0.00 78 1016.7
20260507073341 26 135 11.3 12.9 0.00 0.00 0.00 78 1016.8
20260507072838 26 91 14.5 14.5 0.00 0.00 0.00 78 1016.9
20260507072336 26 113 6.4 9.7 0.00 0.00 0.00 78 1016.9
20260507071833 26 111 4.8 8.0 0.00 0.00 0.00 78 1017.0
20260507071330 26 117 12.9 16.1 0.00 0.00 0.00 78 1016.9
20260507070826 26 103 6.4 9.7 0.00 0.00 0.00 78 1017.1
20260507070324 26 143 4.8 8.0 0.00 0.00 0.00 78 1017.2
20260507065820 26 138 12.9 16.1 0.00 0.00 0.00 78 1017.1
20260507065317 26 126 11.3 17.7 0.00 0.00 0.00 78 1017.3
20260507064814 26 125 4.8 9.7 0.00 0.00 0.00 78 1017.4
20260507064313 26 116 8.0 14.5 0.00 0.00 0.00 78 1017.3
20260507063810 26 117 11.3 14.5 0.00 0.00 0.00 79 1017.5
20260507063307 26 81 6.4 8.0 0.00 0.00 0.00 78 1017.5
20260507062804 26 124 11.3 16.1 0.00 0.00 0.00 78 1017.7
20260507062301 26 149 6.4 9.7 0.00 0.00 0.00 78 1017.3
20260507061759 26 125 3.2 3.2 0.00 0.00 0.00 78 1017.5
20260507061256 26 124 8.0 12.9 0.00 0.00 0.00 78 1017.3
20260507060754 26 122 9.7 12.9 0.00 0.00 0.00 78 1017.5
20260507060250 26 128 14.5 20.9 0.00 0.00 0.00 78 1017.5
20260507055747 26 107 8.0 11.3 0.00 0.00 0.00 78 1017.7
20260507055242 26 90 8.0 12.9 0.00 0.00 0.00 79 1017.6
20260507054739 26 111 11.3 16.1 0.00 0.00 0.00 78 1017.7
20260507054236 26 128 11.3 14.5 0.00 0.00 0.00 77 1017.7
20260507053733 26 124 4.8 4.8 0.00 0.00 0.00 77 1018.0
20260507053231 26 111 16.1 20.9 0.00 0.00 0.00 77 1017.8
20260507052730 26 108 11.3 12.9 0.00 0.00 0.00 78 1017.9
20260507052225 26 116 8.0 12.9 0.00 0.00 0.00 77 1018.0
20260507051724 26 115 6.4 8.0 0.00 0.00 0.00 77 1018.1
20260507051220 26 124 8.0 12.9 0.00 0.00 0.00 77 1018.0
20260507050717 26 113 14.5 17.7 0.00 0.00 0.00 77 1018.1
20260507050214 26 102 6.4 9.7 0.00 0.00 0.00 77 1018.1
20260507045711 26 132 9.7 12.9 0.00 0.00 0.00 76 1018.1
20260507045207 26 111 12.9 12.9 0.00 0.00 0.00 76 1018.0
20260507044704 26 110 6.4 9.7 0.00 0.00 0.00 76 1018.2
20260507044201 26 97 11.3 12.9 0.00 0.00 0.00 76 1018.2
20260507043657 26 126 6.4 11.3 0.00 0.00 0.00 76 1018.3
20260507043154 26 102 11.3 14.5 0.00 0.00 0.00 75 1018.4
20260507042650 26 113 8.0 11.3 0.00 0.00 0.00 76 1018.3
20260507042145 26 100 6.4 8.0 0.00 0.00 0.00 76 1018.4
20260507041643 27 117 8.0 9.7 0.00 0.00 0.00 75 1018.3
20260507041139 26 83 6.4 11.3 0.00 0.00 0.00 75 1018.7
20260507040636 26 98 8.0 12.9 0.00 0.00 0.00 76 1018.5
20260507040132 26 109 9.7 11.3 0.00 0.00 0.00 77 1018.4
20260507035628 26 110 12.9 14.5 0.00 0.00 0.00 77 1018.6
20260507035124 26 125 11.3 12.9 0.00 0.00 0.00 77 1018.6
20260507034621 26 112 8.0 11.3 0.00 0.00 0.00 78 1018.2
20260507034119 27 96 9.7 12.9 0.00 0.00 0.00 78 1018.7
20260507033617 27 89 16.1 17.7 0.00 0.00 0.00 77 1018.3
20260507033114 27 94 14.5 17.7 0.00 0.00 0.00 77 1018.4
20260507032611 26 84 11.3 12.9 0.00 0.00 0.00 77 1018.3
20260507032107 27 72 9.7 12.9 0.00 0.00 0.00 78 1018.4
20260507031604 27 91 4.8 8.0 0.00 0.00 0.00 77 1018.4
20260507031101 27 99 12.9 14.5 0.00 0.00 0.00 77 1018.4
20260507030557 27 98 8.0 11.3 0.00 0.00 0.00 77 1018.2
20260507030056 27 81 8.0 9.7 0.00 0.00 0.00 77 1018.3
20260507025552 27 87 11.3 16.1 0.00 0.00 0.00 77 1018.1
20260507025049 27 103 9.7 12.9 0.00 0.00 0.00 77 1018.3
20260507024547 27 80 12.9 14.5 0.00 0.00 0.00 77 1018.1
20260507024044 27 99 11.3 12.9 0.00 0.00 0.00 77 1018.1
20260507023539 27 102 16.1 16.1 0.00 0.00 0.00 77 1018.2
20260507023038 27 83 6.4 12.9 0.00 0.00 0.00 78 1018.0
20260507022534 27 105 12.9 17.7 0.00 0.00 0.00 77 1018.1
20260507022029 27 94 11.3 17.7 0.00 0.00 0.00 77 1018.0
20260507021525 27 85 12.9 14.5 0.00 0.00 0.00 77 1018.1
20260507021022 27 90 8.0 9.7 0.00 0.00 0.00 77 1018.1
20260507020520 27 95 12.9 16.1 0.00 0.00 0.00 77 1017.9
20260507020016 27 96 4.8 8.0 0.00 0.00 0.00 77 1018.0
20260507015515 27 100 9.7 14.5 0.00 0.00 0.00 77 1018.0
20260507015012 27 97 6.4 11.3 0.00 0.00 0.00 78 1017.7
20260507014508 27 98 9.7 11.3 0.00 0.00 0.00 77 1017.8
20260507014004 27 107 9.7 11.3 0.00 0.00 0.00 77 1018.0
20260507013501 27 107 8.0 11.3 0.00 0.00 0.00 77 1018.0
20260507012958 27 85 9.7 12.9 0.00 0.00 0.00 77 1018.1
20260507012455 27 116 9.7 12.9 0.00 0.00 0.00 77 1017.9
20260507011951 27 62 3.2 3.2 0.00 0.00 0.00 77 1017.7
20260507011448 27 74 6.4 9.7 0.00 0.00 0.00 77 1018.0
20260507010944 27 68 11.3 12.9 0.00 0.00 0.00 77 1017.8
20260507010439 27 106 9.7 12.9 0.00 0.00 0.00 77 1018.1
20260507005936 27 106 4.8 8.0 0.00 0.00 0.00 76 1017.9
20260507005433 27 108 8.0 11.3 0.00 0.00 0.00 76 1018.0
20260507004930 27 91 4.8 4.8 0.00 0.00 0.00 76 1017.6
20260507004426 27 98 3.2 4.8 0.00 0.00 0.00 76 1018.0
20260507003924 27 82 4.8 8.0 0.00 0.00 0.00 76 1017.8
20260507003419 27 74 3.2 4.8 0.00 0.00 0.00 76 1018.0
20260507002914 27 127 8.0 8.0 0.00 0.00 0.00 76 1018.0
20260507002410 27 91 4.8 4.8 0.00 0.00 0.00 76 1017.9
20260507001908 27 87 4.8 8.0 0.00 0.00 0.00 76 1017.7
20260507001405 27 73 0.0 1.6 0.00 0.00 0.00 76 1017.8
20260507000902 27 108 4.8 4.8 0.00 0.00 0.00 76 1017.6
20260507000358 27 116 3.2 8.0 0.00 0.00 0.00 76 1017.6
20260506235853 27 92 4.8 8.0 0.00 0.00 0.00 75 1018.0
20260506235351 27 83 4.8 4.8 0.00 0.00 0.00 75 1017.7
20260506234846 27 113 6.4 8.0 0.00 0.00 0.00 75 1017.6
20260506234344 27 139 4.8 4.8 0.00 0.00 0.00 75 1017.9
20260506233842 27 94 4.8 8.0 0.00 0.00 0.00 74 1017.9
20260506233337 27 94 4.8 8.0 0.00 0.00 0.00 74 1017.8
20260506232835 27 108 3.2 4.8 0.00 0.00 0.00 74 1017.9
20260506232330 28 84 3.2 4.8 0.00 0.00 0.00 74 1017.7
20260506231827 28 107 8.0 11.3 0.00 0.00 0.00 74 1017.8
20260506231325 28 116 9.7 11.3 0.00 0.00 0.00 73 1017.9
20260506230822 28 80 3.2 8.0 0.00 0.00 0.00 74 1017.8
20260506230319 28 104 4.8 4.8 0.00 0.00 0.00 73 1017.7
20260506225814 28 126 3.2 4.8 0.00 0.00 0.00 73 1017.7
20260506225312 28 88 8.0 11.3 0.00 0.00 0.00 73 1017.6
20260506224809 28 101 3.2 3.2 0.00 0.00 0.00 73 1017.7
20260506224306 28 105 4.8 4.8 0.00 0.00 0.00 73 1017.5
20260506223802 28 106 8.0 11.3 0.00 0.00 0.00 73 1017.5
20260506223257 28 85 0.0 1.6 0.00 0.00 0.00 73 1017.5
20260506222754 28 117 6.4 8.0 0.00 0.00 0.00 73 1017.6
20260506222250 28 136 11.3 12.9 0.00 0.00 0.00 72 1017.2
20260506221748 28 120 4.8 4.8 0.00 0.00 0.00 72 1017.4
20260506221246 28 125 6.4 8.0 0.00 0.00 0.00 72 1017.1
20260506220743 28 146 8.0 11.3 0.00 0.00 0.00 72 1017.4
20260506220238 28 135 8.0 9.7 0.00 0.00 0.00 73 1017.2
20260506215735 28 92 8.0 9.7 0.00 0.00 0.00 72 1017.2
20260506215230 28 114 1.6 1.6 0.00 0.00 0.00 73 1017.3
20260506214722 28 140 4.8 8.0 0.00 0.00 0.00 72 1017.4
20260506214219 28 153 3.2 4.8 0.00 0.00 0.00 73 1017.3
20260506213717 28 137 6.4 9.7 0.00 0.00 0.00 72 1017.3
20260506213214 28 128 4.8 4.8 0.00 0.00 0.00 72 1017.3
20260506212711 28 138 6.4 8.0 0.00 0.00 0.00 71 1017.3
20260506212206 28 133 1.6 1.6 0.00 0.00 0.00 72 1017.1
20260506211702 28 146 9.7 12.9 0.00 0.00 0.00 70 1017.3
20260506211158 29 114 9.7 11.3 0.00 0.00 0.00 70 1017.3
20260506210655 29 130 1.6 1.6 0.00 0.00 0.00 71 1017.2
20260506210152 29 130 4.8 8.0 0.00 0.00 0.00 70 1017.2
20260506205650 29 146 6.4 8.0 0.00 0.00 0.00 69 1017.2
20260506205144 30 131 1.6 3.2 0.00 0.00 0.00 69 1017.4
20260506204642 30 180 8.0 9.7 0.00 0.00 0.00 69 1017.4
20260506204139 29 218 4.8 4.8 0.00 0.00 0.00 69 1017.6
20260506203637 29 136 8.0 9.7 0.00 0.00 0.00 70 1017.6
20260506203133 29 101 8.0 9.7 0.00 0.00 0.00 70 1017.6
20260506202632 29 154 9.7 11.3 0.00 0.00 0.00 70 1017.7
20260506202127 29 121 4.8 4.8 0.00 0.00 0.00 70 1017.8
20260506201625 29 93 1.6 3.2 0.00 0.00 0.00 70 1017.8
20260506201121 30 111 8.0 9.7 0.00 0.00 0.00 69 1017.6
20260506200618 29 157 4.8 4.8 0.00 0.00 0.00 69 1017.6
20260506200115 29 102 4.8 8.0 0.00 0.00 0.00 71 1017.8
20260506195611 29 117 6.4 8.0 0.00 0.00 0.00 71 1017.8
20260506195108 29 103 3.2 3.2 0.00 0.00 0.00 72 1017.9
20260506194605 30 129 8.0 9.7 0.00 0.00 0.00 69 1017.8
20260506194101 29 98 0.0 1.6 0.00 0.00 0.00 71 1017.8
20260506193559 29 140 8.0 9.7 0.00 0.00 0.00 69 1018.0
20260506193056 29 100 6.4 8.0 0.00 0.00 0.00 69 1018.2
20260506192553 29 156 4.8 4.8 0.00 0.00 0.00 70 1018.2
20260506192049 29 186 6.4 8.0 0.00 0.00 0.00 70 1018.2
20260506191545 29 129 6.4 8.0 0.00 0.00 0.00 70 1018.3
20260506191041 29 143 8.0 9.7 0.00 0.00 0.00 69 1018.2
20260506190539 28 83 3.2 4.8 0.00 0.00 0.00 71 1018.2
20260506190036 29 122 3.2 3.2 0.00 0.00 0.00 70 1018.3
20260506185533 28 129 9.7 11.3 0.00 0.00 0.00 71 1018.3
20260506185030 29 147 11.3 11.3 0.00 0.00 0.00 70 1018.5
20260506184527 28 143 8.0 11.3 0.00 0.00 0.00 69 1018.4
20260506184024 28 103 9.7 11.3 0.00 0.00 0.00 69 1018.4
20260506183520 28 66 4.8 8.0 0.00 0.00 0.00 71 1018.7
20260506183017 30 114 8.0 9.7 0.00 0.00 0.00 67 1018.8
20260506182514 29 122 6.4 8.0 0.00 0.00 0.00 68 1018.7
20260506182011 30 135 4.8 4.8 0.00 0.00 0.00 68 1018.8
20260506181509 29 83 3.2 4.8 0.00 0.00 0.00 68 1018.7
20260506181006 29 109 3.2 3.2 0.00 0.00 0.00 68 1018.9
20260506180502 29 120 8.0 9.7 0.00 0.00 0.00 68 1018.8
20260506175959 29 124 9.7 11.3 0.00 0.00 0.00 68 1019.0
20260506175455 29 130 6.4 8.0 0.00 0.00 0.00 69 1019.0